Find Starlink 37214

NORAD ID: 68345 Int'l Des: 2026-059 Owner: SPXS Country: US Constellation: starlink operational
LEOCIRCULAR

Current View

Loading 3D Globe...

About Starlink 37214

Starlink 37214 (NORAD 68345) is a starlink constellation satellite (v2 mini) launched Mar 22, 2026 by SPXS of US. It operates in LEO, CIRCULAR orbit with a mass of 575.00 kg.

About Starlink 37214

Description loading...

Upcoming Passes

Passes for default location (London). Set your location on the main map for personalized predictions.

Altitude History

Loading altitude history...

Two-Line Element Set

1 68345U 26059AA 26171.39125227 .00013926 00000-0 42247-3 0 9999
2 68345 53.1590 225.9561 0001217 90.6598 269.4544 15.34403645 13978
Epoch: Jun 20, 2026 • Age: 32 hours

Current Status

Altitude 466.7 km
Velocity 7.64 km/s
Sub-Earth Point 45.87°N, 106.15°E
Launch Date Mar 22, 2026
Age 0.2 years
Type internet

Technical Details

Classification Payload
Mass 575.00 kg
Dry Mass 530.00 kg
Total Mass 575.00 kg
Length 0.30 m
Diameter 4.10 m
Span 29.00 m
Shape Box + pan
Manufacturer SPXS
Bus Type Starlink V2MO
Phase Status In Orbit
Owner/State SPXS/US

Most Searched